Archive
1. Wardrobe dysfunction. (3rd Aug 2009, 5:00 AM)
2. Existential nutrition. (5th Aug 2009, 5:00 AM)
3. Zap! (7th Aug 2009, 5:00 AM)
4. Grim, gritty, and probably poorly lit. (10th Aug 2009, 5:00 AM)
5. Not so much. (12th Aug 2009, 5:00 AM)
6. Long lost pal. (14th Aug 2009, 5:00 AM)
7. Fear of the Known (17th Aug 2009, 5:00 AM)
8. "Worldsies"? (19th Aug 2009, 5:00 AM)
9. It's Like She's Psychic... (21st Aug 2009, 5:00 AM)
10. Completely Legitimate Field of Study (24th Aug 2009, 5:00 AM)
11. This... may end poorly. (26th Aug 2009, 5:00 AM)
12. Name Calling (28th Aug 2009, 5:00 AM)
13. If you didn't get it already... (31st Aug 2009, 5:00 AM)
14. Awk-ward (2nd Sep 2009, 5:00 AM)
15. Gratitude (4th Sep 2009, 5:00 AM)
16. Marking Her Territory (7th Sep 2009, 5:00 AM)
17. Shopping (9th Sep 2009, 5:00 AM)
18. Sudden realizations (11th Sep 2009, 5:00 AM)
19. The power of rage (14th Sep 2009, 5:00 AM)
20. 1d6 is Not Enough (16th Sep 2009, 5:00 AM)
21. Smack talk (18th Sep 2009, 5:00 AM)
22. San Loss (21st Sep 2009, 5:00 AM)
23. The Wrath of Kotb (23rd Sep 2009, 5:00 AM)
24. Can't. Stop. Talking. (25th Sep 2009, 5:00 AM)
25. Going. (29th Sep 2009, 5:00 AM)
26. Computeresque. (18th Oct 2009, 11:05 AM)
27. l33t p0w3rz (21st Oct 2009, 5:00 AM)
28. Overreaction (23rd Oct 2009, 5:00 AM)
29. Smile. (26th Oct 2009, 5:00 AM)
30. Brats (28th Oct 2009, 5:00 AM)
31. The Rules (30th Oct 2009, 5:00 AM)
32. A Boy and His Hulk (2nd Nov 2009, 5:00 AM)
33. Piss Piss (4th Nov 2009, 5:00 AM)
34. Enter the Dick (6th Nov 2009, 5:00 AM)
35. The Name Game (9th Nov 2009, 7:00 AM)
36. The Rant, part one (17th Nov 2009, 5:08 AM)
37. The Rant, part 2 (19th Nov 2009, 5:09 AM)
38. Overcoming great fear (6th Jan 2010, 3:44 AM)
39. True story, (13th Jan 2010, 3:24 AM)
40. HR (26th Jan 2010, 4:45 PM)
41. Everybody needs a hobby (2nd Feb 2010, 8:12 PM)
42. Representin' (4th Feb 2010, 5:00 AM)
43. Coming back soonish? Maybe? (27th Nov 2012, 9:33 AM)